Regional Weather Roundup
Issued by NWS

Home | Current Version | Previous Version | Graphics & Text | Print | Product List | Glossary On
Versions: 1 2 3 4 5 6 7 8 9 10 11 12 13 14 15 16 17 18 19 20 21 22 23 24 25 26 27 28 29 30 31 32 33 34 35 36 37 38 39 40 41 42 43 44 45 46 47 48 49 50
000
ASUS45 KCYS 030510
RWRWY

WYOMING REGIONAL WEATHER ROUNDUP
NATIONAL WEATHER SERVICE CHEYENNE WY
1100 PM MDT SAT MAY 02 2015

NOTE:  "FAIR" INDICATES FEW OR NO CLOUDS BELOW 12,000 FEET
WITH NO SIGNIFICANT WEATHER AND/OR OBSTRUCTIONS TO VISIBILITY.

WYZ001-030600-
YELLOWSTONE NATIONAL PARK

CITY           SKY/WX    TMP DP  RH WIND       PRES   REMARKS
LK YELLOWSTONE   N/A     40  28  62 CALM      29.99R
W YELLOWSTONE  NOT AVBL

$$
WYZ002>013-054>058-071-098>099-030600-
NORTHERN WYOMING

CITY           SKY/WX    TMP DP  RH WIND       PRES   REMARKS
JACKSON        FAIR      48  34  57 SW7       29.93S
CODY           CLOUDY    59  28  31 N13       29.89R
GREYBULL       FAIR      65  22  19 VRB6      29.76S
WORLAND        FAIR      63  24  22 VRB5      29.77S
SHERIDAN       FAIR      57  33  40 W15       29.84R
BUFFALO        FAIR      56  29  35 W7        29.87R
GILLETTE       FAIR      45  34  65 SW5       29.81R
HULETT         FAIR      52  27  37 S6        29.81S
NEWCASTLE      FAIR      52  30  43 CALM      29.80R

$$
WYZ014>020-022>026-101>103-030600-
CENTRAL WYOMING

CITY           SKY/WX    TMP DP  RH WIND       PRES   REMARKS
BIG PINEY      FAIR      40  30  67 N3        30.00F
PINEDALE       FAIR      43  32  65 CALM      30.01S
DUBOIS         FAIR      52  27  37 W14G25    29.94S
LANDER         FAIR      61  27  27 CALM      29.87S
RIVERTON       FAIR      60  27  28 W13       29.88R
CASPER         FAIR      57  35  43 SW12      29.86S
DOUGLAS        FAIR      55  39  54 CALM      29.85F

$$
WYZ021-027>030-104>119-030600-
SOUTHERN WYOMING

CITY           SKY/WX    TMP DP  RH WIND       PRES   REMARKS
EVANSTON       FAIR      52  31  44 SE8       30.04R
KEMMERER       FAIR      46  32  57 CALM      30.03S
FORT BRIDGER   CLEAR     50  36  57 NE7       30.06S
ROCK SPRINGS   MOCLDY    49  38  65 S8        30.01F
DIXON          FAIR      47  38  70 E10       30.06S
RAWLINS        MOCLDY    55  30  38 SW16      29.99R
SARATOGA       MOCLDY    52  34  50 SW8G18    30.03R
LARAMIE        FAIR      48  35  60 SW15      30.02R
CHEYENNE       FAIR      55  37  50 W16       29.95S
TORRINGTON     FAIR      57  42  57 NE7       29.81F
PINE BLUFFS    FAIR      50  43  76 S9        29.92F

$$


USA.gov is the U.S. government's official web portal to all federal, state and local government web resources and services.